Weather in Pemberton

Australia     34°26′37″S   116°02′05″E
temp.,
°C
wind,
m/s
gust,
m/s
humid.,
%
clouds,
%
prec.,
mm/h
press.,
hPa
HPBL,
m
25 may, wed
wed2523:00+13w118549 0.1 101821
02:00+14wnw1186100 0.3 101933
05:00+14wnw148795 0.1 1019118
08:00+14nw169178 0.4 1020202
11:00+18wnw35674 0.4 10201037
14:00+18w356159 0.6 10201348
17:00+15wnw147534 0.1 1020145
20:00+12nnw2489100 0.1 102184
26 may, thu
thu2623:00+11nnw14885 0.0 102176
02:00+10nnw12890 0.0 102037
05:00+10n11910 0.0 102028
08:00+11n13850 0.0 102166
11:00+18nnw12530 0.0 1020857
14:00+20nw12440 0.0 10181794
17:00+14ssw11785 0.0 101915
20:00+11ene11895 0.0 102010
27 may, fri
fri2723:00+10ne11901 0.0 102011
02:00+10ne11885 0.0 102011
05:00+9e118791 0.0 102011
08:00+10e128292 0.0 102145
11:00+17se245613 0.0 1020619
14:00+19se23440 0.0 10181427
17:00+15sse26750 0.0 1018178
20:00+11ese17973 0.0 1020145
28 may, sat
sat2823:00+10ese11998 0.0 102031
02:00+10e11983 0.0 101915
05:00+9e11982 0.0 101811
08:00+10e00963 0.0 101921
11:00+14ssw2683100 0.1 1019615
14:00+17sw375512 0.2 10171693
17:00+14wsw286681 0.1 1016662
20:00+13ssw4106897 0.7 1018883
29 may, sun
sun2923:00+12s3867100 0.0 1019913
02:00+11s4968100 0.1 1019950
05:00+12ssw41059100 0.1 10191669
08:00+13s41056100 0.1 10211715
11:00+15s49517 0.0 10221702
14:00+12sse3866100 0.1 10231510
17:00+11sse2869100 0.1 10241264
20:00+11se2767100 0.1 10261061